Regional Weather Roundup
Issued by NWS

Home | Current Version | Previous Version | Text Only | Print | Product List | Glossary Off
Versions: 1 2 3 4 5 6 7 8 9 10 11 12 13 14 15 16 17 18 19 20 21 22 23 24 25 26 27 28 29 30 31 32 33 34 35 36 37 38 39 40 41 42 43 44 45 46 47 48 49 50

000
ASUS43 KLOT 010208
RWRIL

ILLINOIS REGIONAL WEATHER ROUNDUP
NATIONAL WEATHER SERVICE CHICAGO/ROMEOVILLE IL
900 PM CDT TUE MAY 31 2016

NOTE: "FAIR" INDICATES FEW OR NO CLOUDS BELOW 12,000 FEET WITH NO
SIGNIFICANT WEATHER AND/OR OBSTRUCTIONS TO VISIBILITY.

* THESE STATIONS ARE NOT UNDER NWS QUALITY CONTROL. THEY ALSO MAY NOT
  REPORT WEATHER SUCH AS PRECIPITATION OR FOG.

ILZ001-002-007-009-015-016-024-010300-
NORTHWEST ILLINOIS

CITY           SKY/WX    TMP DP  RH WIND       PRES   REMARKS
MOLINE         CLOUDY    70  65  84 E5        29.90R
STERLING*      PTCLDY    67  63  87 SE7       29.94R
SAVANNA*       MOCLDY    69  63  81 SE9       29.92R
$$

ILZ003-004-008-010-011-017-018-010300-
NORTH CENTRAL ILLINOIS

CITY           SKY/WX    TMP DP  RH WIND       PRES   REMARKS
ROCKFORD       CLOUDY    66  61  84 SE3       29.95F
FREEPORT*      CLOUDY    64  62  93 SE5       29.95S
ROCHELLE*      PTCLDY    65  62  88 SE12      29.94S
DE KALB*       CLOUDY    64  62  91 SE6       29.96S
$$

ILZ005-006-012>014-019>023-010300-
NORTHEAST ILLINOIS

CITY           SKY/WX    TMP DP  RH WIND       PRES   REMARKS
CHICAGO-OHARE  CLOUDY    67  61  81 E6        29.95S
CHICAGO-MIDWAY CLOUDY    67  60  78 SE8       29.96R
AURORA         CLOUDY    66  63  90 SE3       29.95S
LANSING*       CLOUDY    64  60  84 E6        29.97S
JOLIET*        CLOUDY    69  64  85 S7        29.98R
WAUKEGAN       CLOUDY    64  62  93 CALM      29.95F
DUPAGE AIRPORT CLOUDY    66  61  84 SE7       29.94F
KANKAKEE*      CLOUDY    68  61  77 CALM      29.99S
WHEELING       CLOUDY    65  61  87 E3        29.96F
MORRIS*        MOCLDY    68  62  82 SE7       29.96R
ROMEOVILLE*    CLOUDY    66  62  85 SE8       29.97R
NORTHERLY ISL    N/A     61  58  90 E2          N/A
$$

LMZ740>746-010300-
SOUTHERN LAKE MICHIGAN

STATION/POSITION SKY/WX   TEMP    WIND        PRES    VSBY  WAVE
                          AIR SEA DIR/SP/G                  HT/PER
                          (F)     (DEG/KT/KT) (MB)    (MI)  (FT/S)
SOUTHERN BUOY              56 55  360/  4/  4 1015.4          1/ 3
WILMETTE HARBOR            60 58  340/  4/  4   N/A           1
HARRISON CRIB              64     360/  6/  7   N/A
BURNHAM HARBOR             63     340/  3/  9   N/A
BURNS HARBOR               62      80/ 12/ 18 1015.6F
MICHIGAN CITY              61      20/  5/  6   N/A
MICHIGAN CITY 6N           62 62   40/  6/ 10   N/A           2/ 4
ST. JOSEPH                 63 64   20/ 10/ 12   N/A           2
$$

ILZ025>027-034>036-040-047-049-050-058-095>099-010300-
WEST-CENTRAL ILLINOIS

CITY           SKY/WX    TMP DP  RH WIND       PRES   REMARKS
QUINCY         PTCLDY    75  65  70 SE5       29.90S
GALESBURG*     CLOUDY    75  63  65 SE3       29.91R
MACOMB*        MOCLDY    74  63  68 S3        29.94R
JACKSONVILLE*  PTCLDY    73  64  72 SE5       29.92R
PITTSFIELD*    PTCLDY    73  67  82 CALM      29.92R
$$

ILZ028>032-037-038-041>044-048-051>054-059>061-010300-
CENTRAL ILLINOIS

CITY           SKY/WX    TMP DP  RH WIND       PRES   REMARKS
PONTIAC        MOCLDY    70  62  75 E7        29.95F
BLOOMINGTON    CLOUDY    69  66  90 E13       29.95R
DECATUR        CLOUDY    70  63  78 E9        29.94R
PEORIA         CLOUDY    72  61  68 E8        29.92R
LACON*         PTCLDY    69  60  72 E8        29.92F
LINCOLN*       CLOUDY    70  62  75 CALM      29.93R
SPRINGFIELD    MOCLDY    73  62  68 CALM      29.92R
TAYLORVILLE    CLOUDY    69  66  89 CALM      29.93R
$$

ILZ033-039-045-046-055>057-062-063-010300-
EAST-CENTRAL ILLINOIS

CITY           SKY/WX    TMP DP  RH WIND       PRES   REMARKS
CHAMPAIGN      PTCLDY    68  61  78 NE10      29.95S
RANTOUL*       PTCLDY    68  64  85 N12       29.96S
MATTOON        CLOUDY    73  59  61 NE9       29.93R
PARIS*         CLEAR     74  62  66 N5        29.94S
$$

ILZ079-100>102-010300-
SOUTHWEST ILLINOIS

CITY           SKY/WX    TMP DP  RH WIND       PRES   REMARKS
ALTON          PTCLDY    72  64  78 E6        29.92R
BELLEVILLE     MOCLDY    76  67  72 SE3       29.91R
CAHOKIA*       MOCLDY    74  65  73 CALM      29.91R
SPARTA*        PTCLDY    73  67  79 E3        29.93R
$$

ILZ064>066-069>071-074>076-080>082-084>086-088>090-092>094-010300-
SOUTH-CENTRAL ILLINOIS

CITY           SKY/WX    TMP DP  RH WIND       PRES   REMARKS
CARBONDALE     PTCLDY    74  63  68 CALM      29.92R
CAIRO*         CLEAR     75  69  81 CALM      29.91R
EFFINGHAM*     CLOUDY    71  69  93 CALM      29.95R
MARION         PTCLDY    73  68  83 CALM      29.93R
MT. VERNON     CLOUDY    70  63  78 CALM      29.94R
CENTRALIA*     CLOUDY    71  66  83 CALM      29.93R
SALEM*         MOCLDY    74  66  77 CALM      29.94R
METROPOLIS*    CLEAR     75  69  82 CALM      29.92R
$$

ILZ067-068-072-073-078-083-087-091-010300-
SOUTHEAST ILLINOIS

CITY           SKY/WX    TMP DP  RH WIND       PRES   REMARKS
LAWRENCEVILLE  CLOUDY    78  64  61 CALM      29.93R HX  80
FLORA*         CLOUDY    75  66  74 W3        29.93R
FAIRFIELD*     CLEAR     74  67  79 CALM      29.92R
HARRISBURG*    CLEAR     75  67  76 CALM      29.93R
ROBINSON*      CLOUDY    72  64  74 CALM      29.94R
CARMI*         PTCLDY    74  67  77 CALM      29.92R
$$

ABBREVIATIONS USED IN REMARKS
   TC - TEMPERATURE IN CELSIUS
  WCI - WIND CHILL INDEX
   HX - HEAT INDEX
  VSB - VISIBILITY
$$





USA.gov is the U.S. government's official web portal to all federal, state and local government web resources and services.